Temp
21 21 21 21 21 21 21 21 21 22 22 21 21 21 21 21 21 22 22 21 21 22 21 22 22 22 22 22 22 22 22 22 22 22 22 22 22 22 22 22 22 22 22 22 22 22 22 22 22 22 22 22 22 22 22 22 22 22 22 22 22 22 22 22 22 22 22 22 22 22 22 21 21 21 21 21 21 21 21 21 21 21 21 21 21
21 21 21 21 21 21 21 21 22 22 22 21 22 21 21 21 22 23 22 22 22 22 22 22 22 22 22 22 22 22 22 22 22 22 22 22 22 22 22 22 22 22 22 22 22 22 22 22 22 22 22 22 22 22 22 22 22 22 22 22 22 22 22 22 22 22 22 22 22 22 22 21 21 21 21 21 21 21 21 21 21 21 21 21 21
21 21 22 21 21 22 22 22 22 22 21 22 22 22 22 22 23 23 23 22 22 22 22 22 22 22 22 22 22 22 22 22 22 22 22 22 22 22 22 22 22 22 22 22 22 22 22 22 22 22 22 22 22 22 22 22 22 22 22 22 22 22 22 22 22 22 22 22 22 22 22 21 21 21 21 21 21 21 21 21 21 21 21 21 21
22 22 22 21 22 22 22 22 22 21 21 22 23 22 22 23 23 23 23 22 22 22 22 22 22 22 22 22 22 22 22 22 22 22 22 22 22 22 22 22 22 22 22 22 22 22 22 22 22 22 22 22 22 22 22 22 22 22 22 22 22 22 22 21 21 22 22 22 22 22 21 21 21 21 21 21 21 21 21 21 21 21 20 21 21
22 23 22 21 22 22 22 22 21 21 21 21 22 22 22 23 23 23 22 22 22 22 22 22 22 22 22 22 22 22 22 22 22 22 22 21 22 22 22 22 22 22 22 22 22 22 22 22 22 22 22 22 22 22 22 22 22 22 22 22 22 22 21 21 21 21 22 22 21 21 21 21 21 21 21 21 21 21 21 21 21 21 20 20 20
23 23 22 22 22 22 22 21 21 21 21 21 22 22 22 22 23 22 22 22 22 22 22 22 22 22 22 22 22 22 22 22 22 22 22 21 21 22 22 22 22 22 22 22 22 22 22 22 22 22 22 22 22 22 22 22 22 22 22 22 22 22 22 22 22 21 21 21 21 21 21 21 21 21 21 21 21 21 21 21 21 21 20 20 20
23 23 22 22 22 22 21 21 21 22 22 21 22 22 22 22 22 22 22 22 22 22 22 22 22 22 22 22 22 22 22 22 22 22 21 21 21 22 22 22 22 22 22 22 22 22 22 22 22 22 22 22 22 22 22 22 22 22 22 22 22 22 22 22 21 21 21 21 21 21 21 21 21 21 21 21 21 21 21 21 21 21 21 20 20
23 23 22 22 22 22 22 22 22 22 22 21 22 22 22 22 22 22 22 22 22 22 22 22 22 22 22 21 22 22 22 22 22 22 21 21 21 22 22 22 22 22 22 22 22 22 22 22 22 22 22 22 22 22 22 22 22 22 23 22 22 22 22 22 21 21 21 21 21 21 21 21 21 21 21 21 21 21 21 21 20 20 21 21 20
22 22 22 23 22 22 22 22 22 22 22 22 22 22 22 22 22 22 22 22 22 22 22 22 22 22 22 22 22 22 22 22 22 22 21 22 22 22 22 22 22 22 22 22 22 22 22 22 22 22 22 22 22 22 22 22 22 22 22 22 22 22 22 22 21 21 21 21 21 21 21 21 21 21 21 21 21 21 21 21 21 21 20 20 21
22 22 22 22 21 22 22 22 22 22 22 22 22 22 22 22 22 22 22 22 22 22 22 22 22 22 22 22 21 22 22 22 22 22 22 22 22 22 22 22 22 21 21 21 22 22 22 22 22 22 22 22 22 22 22 22 22 22 22 22 22 22 22 22 22 21 21 21 21 21 21 21 20 21 21 21 21 21 21 21 21 21 20 20 21
22 22 22 22 22 22 22 22 22 22 22 22 22 22 22 22 22 22 21 21 22 22 22 22 21 21 22 21 21 21 22 21 21 22 22 22 22 22 22 21 21 21 21 21 22 22 22 22 22 22 22 22 22 22 22 23 23 23 22 22 22 22 22 22 22 21 21 21 21 21 21 21 20 21 21 21 21 21 21 21 20 21 21 21 20
22 22 22 22 22 22 22 22 22 22 22 22 22 22 22 22 22 22 22 22 21 21 22 22 21 21 21 21 21 21 21 21 21 21 22 22 22 22 21 21 22 21 21 21 22 22 22 22 22 22 22 23 23 22 22 23 23 23 22 22 22 22 22 22 22 22 22 21 21 21 21 21 20 20 21 21 21 21 21 21 21 21 21 20 20
22 22 22 21 22 22 22 22 22 22 22 22 22 22 21 21 21 22 22 21 21 21 21 22 21 21 21 21 21 21 21 21 21 21 22 22 22 22 21 21 22 21 21 22 22 22 22 22 22 22 23 23 23 23 23 23 23 23 23 22 22 22 22 22 22 22 22 22 21 21 21 21 21 20 21 21 21 21 21 21 21 21 21 20 20
22 22 21 21 22 22 22 22 22 22 22 22 22 22 21 21 22 21 21 21 21 21 21 21 22 21 21 21 21 22 21 21 21 22 21 22 22 21 22 21 21 21 21 22 22 22 22 22 22 23 23 23 23 23 23 23 23 23 23 23 22 22 22 22 22 22 22 22 22 21 21 21 20 20 20 20 20 21 21 21 21 21 21 20 20
22 22 22 22 22 22 22 22 22 21 22 21 21 21 21 21 21 21 21 21 21 21 21 21 21 21 21 21 21 21 21 21 22 22 21 21 22 22 21 21 21 22 22 22 22 22 22 23 23 23 23 23 23 23 23 23 23 23 23 23 23 22 22 23 22 22 22 22 22 22 22 21 21 20 20 20 20 20 20 20 20 20 20 20 20
23 22 22 22 22 22 21 21 21 21 21 21 21 21 21 22 21 21 21 21 21 21 21 21 21 22 21 21 21 21 21 21 21 21 21 21 21 22 21 22 22 22 22 22 22 22 22 22 23 23 23 23 23 23 23 23 23 23 23 23 23 22 23 23 23 23 22 22 22 22 22 21 21 20 20 20 20 21 20 20 20 20 20 20 20
22 22 22 21 21 21 21 21 21 21 21 21 21 22 21 21 21 21 21 21 21 21 21 21 21 22 21 21 21 21 21 21 21 21 21 21 21 22 22 22 21 22 22 22 22 22 22 23 23 23 24 24 24 23 23 23 23 23 23 23 23 22 23 23 23 23 23 22 22 22 22 22 21 20 20 20 20 20 20 20 20 20 20 20 20
22 22 21 21 21 21 21 21 21 21 21 21 21 21 21 21 21 21 21 21 21 21 21 21 21 22 22 21 21 21 21 21 22 21 21 21 22 22 22 22 22 22 22 22 22 22 22 23 23 24 24 24 24 24 24 24 24 24 24 24 23 22 22 23 23 23 23 22 22 22 22 22 21 20 20 20 20 20 20 20 20 20 20 20 20
21 21 21 21 21 21 21 21 21 21 21 21 21 21 21 21 21 21 21 21 21 21 21 21 21 21 21 21 21 21 21 21 22 21 21 22 22 22 22 22 22 22 22 22 22 22 23 23 24 24 24 24 24 24 24 24 24 24 24 24 23 23 23 23 23 23 23 23 23 22 22 21 20 20 20 20 20 20 20 20 20 20 20 20 20
21 21 21 21 21 21 21 21 21 21 21 21 21 21 21 21 21 21 21 21 21 21 21 21 21 21 21 21 21 21 21 21 22 22 22 22 22 22 22 22 22 22 22 22 22 23 23 24 24 24 24 24 24 24 24 24 24 24 24 24 24 23 23 23 23 23 23 23 23 23 22 21 21 20 20 20 20 20 20 20 20 20 20 20 20
21 21 21 21 21 21 20 20 20 20 20 21 21 21 20 20 20 21 21 21 21 21 21 21 21 21 21 21 21 21 21 21 21 21 22 22 22 22 22 22 22 22 22 23 23 23 24 24 24 24 24 24 24 24 24 25 25 25 24 24 24 24 23 23 23 23 24 24 23 23 22 22 21 21 21 20 20 20 20 20 20 20 20 20 20
20 20 20 20 21 20 20 20 20 20 20 20 21 20 20 20 21 21 20 20 21 21 21 21 20 21 21 21 21 21 21 21 21 21 22 22 22 22 22 22 22 22 23 23 23 23 24 24 24 24 24 24 24 25 25 25 25 25 24 24 24 24 24 24 23 24 24 24 24 23 23 22 21 21 21 21 21 20 21 21 21 21 20 20 20
21 20 20 20 21 21 20 20 20 20 20 20 20 20 20 21 21 21 20 20 21 21 21 21 20 21 21 21 21 21 21 21 21 21 22 21 21 22 22 23 23 23 23 23 23 24 24 24 24 24 24 24 25 25 25 25 25 25 25 24 24 24 24 24 24 24 25 25 24 24 23 23 22 22 22 22 21 21 21 21 21 21 20 20 20
21 21 20 21 21 21 20 20 20 20 20 20 20 20 20 21 21 21 21 21 21 21 21 21 21 21 21 21 21 21 21 21 21 21 21 21 21 22 22 23 23 23 23 23 24 24 24 24 24 24 24 25 25 25 25 25 25 25 25 25 24 25 25 24 24 25 25 25 25 25 24 24 24 24 23 23 23 22 22 22 22 21 20 21 21
21 21 21 21 21 20 20 20 20 20 20 20 20 20 20 21 21 21 21 21 21 21 21 21 21 21 21 21 21 21 21 21 21 21 21 21 22 22 22 23 23 23 23 23 24 24 24 24 24 24 24 24 25 25 25 25 25 25 26 25 24 24 25 25 25 26 26 26 26 25 25 25 25 25 24 24 23 23 23 22 22 21 21 21 21
22 21 21 21 21 20 20 21 20 20 20 20 20 20 21 21 21 21 21 21 21 21 21 21 21 21 21 21 21 21 21 21 21 21 21 21 22 23 23 23 23 23 23 23 24 24 24 24 24 24 24 24 25 25 25 25 26 26 26 26 25 25 25 25 25 26 26 26 26 26 26 25 25 25 24 24 24 23 23 23 23 22 22 21 21
22 21 21 21 21 20 21 21 21 20 20 20 21 21 21 21 21 21 21 21 21 21 21 21 21 21 21 21 21 21 21 21 21 22 21 22 23 23 23 23 23 23 23 24 24 24 24 24 24 24 25 25 25 25 25 25 26 26 26 26 26 26 25 26 26 26 27 26 26 26 26 25 25 25 24 24 24 24 23 23 23 22 22 21 21
22 21 21 22 21 21 21 21 21 21 21 21 21 21 21 21 21 21 21 21 21 21 21 21 21 21 21 21 21 21 21 21 22 22 22 22 23 23 23 23 23 23 24 24 24 24 24 24 24 25 25 25 26 26 26 26 26 26 26 26 27 26 26 26 26 27 27 26 26 26 26 25 25 25 25 24 24 24 23 23 23 23 22 22 21
22 22 22 22 22 22 22 21 21 21 21 21 21 21 21 21 21 21 21 21 21 21 21 21 21 21 21 21 21 21 22 22 22 22 22 23 23 23 23 23 24 24 24 24 24 24 24 24 25 25 25 26 26 26 26 27 27 27 27 27 27 27 27 26 26 27 27 26 26 26 26 26 25 25 25 25 24 24 24 23 23 23 23 22 21
23 22 22 22 22 22 22 22 22 22 21 21 21 21 21 21 21 21 21 21 21 21 21 21 22 22 22 22 22 22 22 22 22 22 23 23 23 23 23 24 24 24 24 24 24 24 25 25 25 25 25 26 26 26 26 27 27 27 27 27 27 27 27 27 27 27 27 26 26 26 26 26 26 25 25 25 25 24 24 24 23 23 23 22 22
23 22 22 22 22 22 22 22 22 22 22 22 22 21 21 21 21 21 21 22 21 22 22 22 22 22 22 22 22 23 23 23 23 23 23 23 23 23 23 23 24 24 24 24 24 24 25 25 25 25 25 26 26 26 27 27 27 27 27 27 27 27 27 27 27 27 27 27 26 26 26 26 26 26 25 25 25 24 24 24 24 24 24 23 22
23 23 23 23 23 23 22 22 22 22 22 22 22 22 22 22 22 22 22 22 22 22 22 22 22 22 22 22 23 23 23 23 23 23 23 23 23 23 23 23 24 24 24 24 24 25 25 25 25 25 26 26 26 27 27 27 27 27 27 27 27 27 27 27 27 27 27 27 27 27 26 26 26 26 26 26 25 25 25 24 24 24 24 24 23
23 23 23 23 23 23 23 22 22 22 22 22 22 22 22 22 22 22 22 22 22 22 22 23 23 22 22 22 23 23 23 23 23 23 24 23 23 23 23 24 24 24 24 24 24 25 25 25 25 26 26 26 27 27 27 27 28 28 28 28 27 27 28 28 27 27 27 27 27 27 27 26 26 26 26 26 26 25 25 25 25 25 25 24 24
23 23 23 23 23 23 23 23 23 23 23 23 23 22 22 22 22 22 22 23 23 23 23 23 23 23 23 23 23 23 23 23 24 24 24 24 24 24 24 24 24 24 24 24 25 25 25 26 26 26 26 27 27 27 27 27 28 28 28 28 28 28 28 28 28 27 27 28 28 27 27 26 26 26 26 26 26 26 26 25 25 25 25 25 24
23 23 23 23 23 23 23 23 23 23 23 23 23 23 23 23 23 23 23 23 23 23 23 23 23 23 23 23 23 23 23 24 24 24 24 24 24 24 24 24 24 24 24 25 25 25 25 25 26 26 27 27 27 27 27 27 28 28 28 29 28 28 28 28 28 28 28 28 28 27 27 27 26 26 26 26 26 26 26 25 25 25 25 25 25
24 24 23 23 23 23 23 23 23 23 23 23 23 23 23 23 23 23 23 23 23 23 24 24 23 23 23 23 23 23 24 24 24 24 24 24 24 24 24 24 24 24 25 25 25 25 25 25 26 26 26 26 27 27 27 28 28 28 29 29 29 28 28 28 28 28 28 28 28 28 27 27 27 27 26 26 26 26 25 25 25 25 25 25 25
24 24 23 23 23 23 24 24 24 23 23 23 24 24 24 24 24 24 23 23 24 24 24 24 24 24 24 23 23 24 24 24 24 24 24 24 24 24 24 24 24 24 25 25 25 25 25 25 26 26 26 26 27 27 28 28 28 28 29 29 29 29 29 29 28 28 29 28 28 28 28 27 27 27 26 26 26 26 26 26 25 25 25 25 25
25 24 24 24 24 24 24 24 24 24 24 24 24 24 24 24 24 24 24 24 24 24 24 24 24 24 24 23 23 24 24 24 24 24 24 24 24 24 24 24 24 25 25 25 25 25 25 25 26 26 26 26 27 27 28 28 28 28 29 29 29 29 29 29 29 29 29 28 28 28 28 28 28 27 27 26 26 26 26 26 26 25 25 25 25
25 25 25 24 24 24 24 24 24 24 24 24 24 24 24 24 24 24 24 24 24 24 24 24 24 24 24 24 24 24 24 24 24 24 24 24 24 24 24 24 24 25 25 25 25 25 25 25 26 26 26 27 27 27 28 28 28 29 29 29 29 29 29 29 29 29 29 28 28 28 28 28 28 27 27 27 26 26 26 26 26 26 26 25 25
25 25 25 25 24 24 24 24 24 24 24 24 24 24 24 24 24 24 24 24 24 24 24 24 24 24 24 24 24 24 24 24 24 24 24 24 24 24 24 25 25 25 25 25 25 25 25 25 25 26 27 27 27 28 28 28 28 29 29 29 29 29 29 29 29 29 29 28 28 28 28 28 28 27 27 27 27 27 27 26 26 26 26 25 25
25 25 25 25 25 25 25 24 24 24 24 24 24 24 24 24 24 25 24 24 24 24 24 24 24 24 24 24 24 24 24 24 24 24 24 24 24 24 24 25 25 25 25 25 25 25 25 25 25 26 26 27 27 28 28 28 28 29 29 29 29 29 29 29 29 29 29 29 28 28 28 28 28 28 27 27 27 27 27 27 26 26 26 26 25
25 25 25 25 25 25 25 25 25 25 25 25 25 24 24 25 25 25 25 24 24 24 24 24 24 24 24 24 24 24 24 24 24 24 24 24 24 24 24 24 25 25 25 25 25 25 25 25 25 26 26 26 27 28 28 28 29 29 28 29 28 29 29 29 29 29 29 29 29 28 28 29 29 28 28 27 27 27 27 27 27 26 26 26 26
26 25 25 25 25 25 25 25 25 25 25 25 25 25 25 25 25 25 25 25 25 24 24 24 24 24 24 24 24 24 24 24 24 24 24 24 24 24 24 24 25 25 25 25 25 25 25 25 25 26 26 26 27 28 28 27 28 28 28 28 27 28 29 29 29 29 29 29 29 29 29 29 29 28 28 28 27 28 27 27 27 27 27 27 26
26 25 25 25 25 25 25 25 25 25 25 25 25 25 25 26 26 25 25 25 25 25 24 24 24 24 24 24 24 24 24 24 24 24 24 24 24 24 24 24 24 25 25 25 25 25 25 25 25 25 26 26 27 27 28 27 28 28 28 27 26 27 28 28 28 29 29 29 29 29 29 29 29 28 28 28 28 28 27 27 27 27 27 27 27
26 25 25 25 25 25 25 25 25 25 25 25 25 25 25 25 26 25 25 25 25 24 24 24 24 24 24 23 24 24 24 24 24 24 24 24 24 24 24 24 24 25 25 25 25 25 25 25 25 25 26 26 26 27 28 28 28 28 28 27 26 27 28 27 27 28 28 29 29 29 29 29 29 28 28 28 28 28 28 27 27 27 27 27 27
26 26 25 25 25 25 25 25 25 25 25 25 25 25 25 25 25 25 25 25 24 24 24 24 24 24 24 24 24 24 24 24 24 24 24 24 24 24 24 24 25 25 25 25 25 25 25 25 25 25 26 26 26 27 27 28 28 28 28 28 28 28 28 27 27 28 28 28 28 28 29 29 29 28 28 28 28 28 28 28 28 28 27 27 27
26 26 25 25 25 25 25 25 25 25 25 25 25 26 25 25 25 25 25 25 24 24 24 24 24 24 24 24 24 24 24 24 24 24 24 24 24 25 24 25 25 25 25 25 25 25 25 25 25 26 26 26 27 27 27 27 28 28 28 28 28 29 29 28 27 27 28 28 28 28 29 28 29 29 28 28 28 28 28 28 28 28 28 27 27
26 26 26 25 25 25 25 25 25 25 25 25 25 26 25 25 25 25 25 25 25 25 25 24 24 24 24 24 24 24 24 24 24 24 24 24 24 25 24 25 25 25 25 25 25 25 26 26 26 26 26 26 26 26 26 27 27 27 28 29 29 29 29 29 29 28 27 28 28 28 29 29 29 29 29 28 28 28 28 28 28 28 28 28 27
26 26 26 25 25 25 25 25 25 25 25 25 26 26 26 26 25 25 25 25 25 25 25 24 24 24 24 24 24 24 24 24 24 24 24 24 24 25 25 24 25 25 25 25 25 25 25 26 26 25 26 26 26 26 26 26 27 27 28 28 29 29 29 29 29 29 28 28 28 27 28 29 29 29 29 28 28 28 28 28 28 28 28 28 28
26 26 26 25 25 25 25 25 25 25 25 25 25 26 26 26 25 25 25 25 25 25 25 24 24 24 24 24 24 24 24 24 24 24 24 24 24 25 25 24 25 25 25 25 25 25 25 25 26 26 26 26 26 26 26 26 27 27 27 28 28 28 29 28 28 28 28 28 28 26 27 28 28 29 29 29 28 28 28 28 28 28 28 28 28
27 26 26 25 25 25 25 25 25 25 25 25 25 25 25 26 26 25 25 25 25 25 25 25 25 25 24 24 24 24 24 24 24 24 24 24 24 24 25 25 25 25 25 25 25 25 25 25 26 26 26 26 26 26 27 27 27 27 27 27 28 28 28 28 28 28 28 28 28 27 27 28 28 28 29 29 29 29 29 28 28 28 28 28 28
Height
827 827 828 827 828 827 828 827 827 827 828 828 829 829 828 829 828 829 829 830 831 831 831 831 832 832 833 833 833 833 834 834 835 836 836 836 835 835 835 836 836 836 837 837 837 837 837 837 837 837 838 839 839 839 839 839 839 839 839 839 840 840 839 840 840 839 839 839 839 839 839 838 838 838 838 838 838 838 837 837 837 837 836 836 836
825 827 827 827 827 827 828 827 828 828 828 829 829 829 829 829 829 830 830 831 832 832 832 832 833 833 834 834 834 834 835 835 836 837 837 837 836 837 837 838 838 838 838 838 838 838 838 838 838 839 840 840 840 841 841 841 841 841 841 841 841 841 841 840 840 841 841 840 840 840 840 839 839 839 839 839 839 838 838 838 837 837 837 837 837
825 826 826 827 827 827 827 827 828 828 829 829 829 829 829 830 830 830 831 832 832 833 833 833 834 834 835 835 836 836 836 836 837 838 838 838 838 838 839 840 840 839 839 839 839 839 839 840 840 840 841 841 842 842 842 842 842 842 842 842 842 842 841 841 841 841 842 841 841 841 841 840 840 840 840 840 839 839 839 838 838 838 838 837 837
824 825 826 826 827 827 828 828 829 830 830 830 830 830 830 830 830 831 832 833 834 834 834 834 835 835 836 836 837 837 837 837 838 839 839 839 839 840 841 841 841 841 841 840 841 840 841 841 842 842 842 842 843 843 843 843 843 843 843 843 843 843 842 842 842 842 843 842 842 842 842 841 841 841 841 841 840 840 839 839 839 839 838 838 838
825 825 826 826 828 828 829 830 831 831 831 831 831 831 831 831 831 832 832 834 834 835 835 835 836 836 837 837 837 837 838 838 839 839 840 840 841 841 842 842 842 842 842 842 842 842 842 843 843 844 844 844 844 844 844 844 844 844 844 844 844 844 843 843 843 843 844 843 843 843 843 842 842 842 842 842 841 841 840 840 840 839 839 839 839
825 825 826 827 829 830 830 831 832 832 832 832 832 832 832 832 832 833 834 835 835 835 836 836 837 837 838 838 838 838 839 839 839 840 841 841 842 842 843 843 843 843 843 843 843 844 844 844 845 845 845 845 845 845 845 845 845 845 845 845 844 844 844 844 844 844 845 844 844 844 844 843 843 843 843 843 842 842 841 841 840 840 840 840 840
826 827 828 828 830 831 831 832 833 833 833 833 833 833 833 833 834 834 835 835 836 836 837 837 838 838 838 839 839 839 840 840 841 841 842 842 843 843 844 844 844 844 844 845 845 845 845 845 846 846 846 846 846 846 846 846 846 846 846 845 845 845 845 845 845 845 846 846 846 845 845 845 844 844 844 844 843 843 842 842 841 841 840 840 840
827 828 828 829 830 831 832 833 833 833 833 834 834 834 834 834 834 835 836 836 837 837 837 838 838 839 839 840 840 840 840 841 842 842 843 843 844 844 844 845 845 846 846 846 846 846 846 847 847 847 847 847 847 847 847 846 846 847 847 847 846 846 846 846 846 847 847 847 847 846 846 845 845 845 845 844 844 844 843 843 842 842 841 841 841
828 829 829 830 831 831 832 833 833 834 834 834 834 834 834 834 835 835 836 837 837 838 838 838 839 839 839 840 841 841 841 842 843 844 844 844 845 845 845 846 846 847 847 847 847 847 848 848 848 848 848 848 848 848 848 847 847 848 848 848 848 847 847 847 847 848 847 848 848 847 847 846 846 846 845 845 845 845 844 844 843 843 842 842 842
829 829 831 831 832 833 833 834 834 834 834 834 834 834 835 835 836 836 837 838 838 838 839 839 839 839 840 841 841 842 842 843 844 845 845 845 846 846 847 847 848 848 848 848 848 849 849 849 849 849 850 849 849 849 849 849 848 849 849 849 849 849 848 848 848 848 848 848 848 848 848 847 847 847 846 846 845 845 844 844 844 844 843 843 842
829 830 831 832 833 834 834 835 835 835 835 835 835 835 836 836 836 837 838 838 839 839 839 839 839 840 841 842 843 843 843 844 845 845 846 846 847 847 848 848 849 849 849 850 850 850 850 850 850 850 850 850 850 850 850 850 850 850 850 850 850 850 850 850 849 849 849 849 849 849 849 848 848 848 847 847 846 845 845 845 845 844 844 844 843
830 831 832 833 833 835 835 836 836 836 836 836 836 836 837 837 837 838 838 839 839 840 840 840 840 841 842 843 844 844 844 845 845 846 847 847 848 848 849 849 849 850 851 851 851 851 851 851 851 851 851 851 851 851 851 851 851 851 851 851 851 851 851 851 850 850 850 850 850 849 849 849 848 848 848 847 847 846 846 845 845 845 845 844 844
830 831 832 834 834 835 835 836 836 836 836 836 836 836 837 837 838 838 838 839 840 840 840 840 841 842 843 844 844 844 845 846 847 847 848 848 849 850 850 850 851 851 852 852 852 852 852 852 852 852 852 852 852 852 852 852 852 852 852 852 852 852 852 851 851 851 851 851 850 850 849 849 849 849 848 848 847 847 846 846 845 845 845 845 845
830 831 832 834 834 835 835 836 836 836 836 836 837 837 837 837 837 838 839 839 840 840 841 841 841 843 843 844 844 844 846 847 847 848 849 850 850 851 851 851 852 853 853 853 853 853 853 853 853 853 853 853 853 853 853 853 853 853 853 853 853 853 853 852 852 851 851 851 851 850 850 849 849 849 848 848 848 847 847 846 846 845 845 845 845
830 831 832 834 834 835 835 836 836 836 836 836 837 837 837 837 837 838 839 840 840 841 841 842 842 843 844 845 845 845 846 847 848 849 850 851 852 852 852 853 853 853 854 854 854 854 854 854 854 853 853 854 853 854 854 854 854 854 854 854 854 853 853 853 852 852 851 851 851 850 850 849 849 849 849 848 848 848 847 847 846 846 846 845 845
831 831 833 834 834 835 836 836 836 837 836 837 837 837 837 837 837 838 839 840 840 841 841 842 843 843 844 845 846 846 847 848 849 850 851 852 853 853 853 854 854 855 855 855 855 855 855 855 855 854 854 854 854 855 854 855 855 855 855 854 854 854 854 853 852 852 852 851 851 850 850 849 849 849 848 848 848 847 847 847 846 846 846 846 846
831 832 833 834 835 836 836 836 837 837 837 837 837 837 837 837 838 839 839 840 840 841 841 842 843 843 845 846 847 848 848 848 849 850 851 853 853 854 854 855 855 855 856 856 856 856 856 855 855 855 855 855 855 855 855 856 855 855 855 855 855 854 854 853 853 852 852 852 851 850 850 849 849 848 848 848 848 847 847 847 847 847 846 846 846
832 833 834 834 835 836 836 837 837 837 837 837 837 837 837 838 839 839 840 839 840 841 842 843 844 844 845 846 847 848 849 849 850 851 852 853 854 855 855 856 856 856 857 857 857 857 857 856 856 856 856 856 856 856 856 856 856 856 856 856 855 855 854 853 853 853 852 852 851 850 849 849 849 848 848 848 848 847 847 847 847 847 847 847 847
833 834 834 835 835 836 836 837 837 837 837 837 837 838 838 838 839 840 839 840 841 842 842 844 844 845 846 847 848 848 850 850 851 852 853 854 855 856 856 856 857 857 857 857 857 857 857 857 857 857 856 856 857 857 857 857 857 857 857 856 856 856 855 854 854 853 853 852 851 850 849 849 848 848 848 848 848 848 847 847 847 847 847 847 847
834 835 835 836 836 837 837 837 838 838 838 838 838 838 839 839 840 840 840 841 842 842 843 844 845 846 847 848 849 849 850 851 852 853 854 855 855 856 857 857 858 858 858 858 858 858 858 858 858 858 858 857 857 857 857 857 857 857 857 857 857 856 855 855 854 854 853 852 851 850 849 849 848 848 848 848 848 848 847 847 847 847 847 847 847
835 835 835 836 836 837 837 838 838 839 839 838 839 839 839 840 840 841 841 842 842 843 844 844 846 847 848 848 849 850 851 852 853 854 855 856 857 857 858 858 858 858 858 858 858 858 859 859 858 858 858 858 858 858 858 858 858 858 858 857 857 857 856 855 855 854 853 852 851 850 850 849 848 848 848 848 848 848 847 847 847 846 847 847 847
835 835 836 837 837 838 838 838 839 839 839 839 839 839 840 840 841 841 842 843 843 844 844 845 846 847 848 848 849 850 851 852 853 855 856 857 858 858 858 858 859 859 859 859 859 859 859 859 859 859 859 859 859 858 858 858 858 858 858 858 857 857 856 856 856 855 854 852 851 851 850 849 848 848 848 848 848 848 847 847 846 846 846 846 847
834 835 836 837 837 838 838 839 839 840 840 840 840 840 840 841 841 842 842 843 843 844 845 845 846 847 848 849 850 851 852 853 854 856 857 858 858 859 859 859 860 860 860 860 860 860 860 860 860 860 860 860 859 859 858 858 858 858 858 858 857 857 856 856 856 855 854 853 852 851 850 850 849 849 849 848 848 848 847 847 846 846 846 846 847
834 835 836 837 838 838 839 840 840 841 840 840 841 841 841 841 842 842 843 843 844 845 845 846 847 848 849 850 851 852 853 854 855 857 857 858 859 859 860 860 860 860 861 861 861 861 861 861 861 861 861 861 860 859 859 859 859 858 858 858 857 857 857 857 857 856 854 853 852 852 851 851 850 849 849 849 848 848 847 847 846 846 846 846 846
834 835 836 837 837 838 839 840 841 841 841 841 841 841 841 842 843 843 844 844 845 846 846 847 848 849 850 851 852 853 854 855 856 857 858 859 859 860 860 861 861 861 862 862 862 862 862 862 862 862 862 861 861 860 860 859 859 858 858 858 858 857 857 857 857 856 855 854 853 853 852 851 851 850 850 849 849 848 848 847 847 846 846 846 846
834 836 836 837 837 839 840 840 841 842 842 842 842 842 842 843 843 844 844 845 846 847 847 848 849 850 851 852 853 854 855 856 857 858 858 859 860 860 861 861 862 862 863 863 863 863 863 863 863 862 862 861 861 860 860 860 859 858 858 858 858 858 858 858 858 857 855 855 854 854 853 852 852 851 851 850 849 849 848 848 847 846 846 846 845
834 835 836 837 838 839 840 841 842 842 843 843 843 843 843 844 844 845 845 846 847 848 849 850 850 851 852 853 854 855 856 857 858 858 859 860 861 861 862 862 863 863 864 864 864 863 863 863 863 863 862 861 861 860 860 860 859 858 858 858 858 858 858 858 858 858 856 856 855 855 854 853 853 852 852 851 850 849 849 848 847 846 846 845 845
834 836 836 837 838 839 840 841 842 842 843 843 844 844 844 845 846 846 847 847 848 849 850 851 852 852 853 854 855 856 857 858 859 859 860 861 862 862 863 863 864 864 864 864 864 864 864 864 864 863 862 861 861 860 860 859 859 858 858 858 858 858 858 859 859 859 858 857 856 856 855 854 854 853 853 852 851 850 849 848 847 846 846 845 844
834 835 836 837 838 839 840 841 842 842 843 844 844 845 845 846 847 848 848 849 849 850 851 852 853 854 855 856 857 858 858 859 860 860 861 862 863 863 864 864 864 865 865 865 864 864 864 864 864 863 862 862 861 861 860 860 859 859 859 859 859 859 859 860 860 859 858 858 857 857 856 855 855 854 854 853 852 851 850 849 848 847 846 845 844
834 835 836 837 838 839 840 841 842 843 843 844 845 845 846 847 848 849 849 850 851 851 852 853 854 855 856 857 858 859 859 860 861 861 862 863 863 864 864 865 865 865 865 865 865 864 864 863 863 863 863 862 862 861 861 860 860 860 860 860 860 860 860 860 860 859 858 858 858 858 857 856 855 855 854 854 853 852 850 849 848 847 846 845 844
834 835 836 837 838 839 840 841 843 843 844 845 845 846 846 848 849 849 850 851 852 852 853 854 855 856 857 858 859 860 861 861 862 862 863 864 864 865 865 865 865 865 865 865 865 864 864 864 863 863 863 862 862 861 861 861 860 860 860 861 861 861 861 860 860 860 859 859 859 858 858 857 856 856 855 854 853 852 851 850 848 847 846 845 844
834 835 836 837 838 839 840 842 843 844 844 845 846 847 847 848 849 850 851 852 852 853 854 855 856 857 858 859 860 860 861 862 863 863 864 864 865 865 865 865 865 865 865 865 865 864 864 863 863 863 863 862 862 862 861 861 860 860 860 861 861 861 861 861 861 860 860 859 859 859 858 858 857 857 856 855 854 853 852 850 849 848 847 846 844
834 835 836 837 838 839 840 842 843 844 845 846 847 848 848 849 850 851 852 853 853 854 855 856 857 858 859 859 860 861 862 863 863 864 864 865 865 865 865 865 865 865 865 865 865 864 864 863 863 863 863 862 862 861 861 860 860 860 860 860 861 861 861 861 861 860 860 860 859 859 859 858 858 857 857 856 855 854 853 852 850 849 848 847 845
833 835 836 837 838 839 841 842 843 845 845 847 848 848 849 850 851 852 853 853 854 855 856 857 858 858 859 860 861 861 862 863 864 864 864 865 865 865 865 865 866 865 865 865 865 865 864 863 863 863 862 862 861 861 861 860 859 859 860 860 861 861 861 861 861 861 860 860 860 860 859 859 858 858 857 857 856 855 854 853 852 851 849 848 847
833 834 836 837 839 839 841 842 843 845 846 847 848 849 850 851 852 852 853 854 854 855 856 857 858 859 860 860 861 862 863 863 864 864 865 865 865 865 866 866 866 866 866 866 865 865 864 864 863 863 862 862 862 861 861 860 859 859 860 860 861 862 861 861 861 861 861 860 860 860 860 859 859 858 858 857 857 856 855 854 853 852 851 850 848
832 834 836 837 839 840 841 842 843 845 846 847 848 849 850 851 852 853 853 854 855 856 857 857 858 859 860 861 862 862 862 863 864 864 865 865 865 866 866 866 866 866 866 865 865 865 864 864 864 863 863 862 862 861 861 860 860 859 860 861 862 862 861 860 861 861 861 861 861 860 860 860 859 859 859 858 857 857 856 855 855 854 853 851 850
831 833 836 837 838 840 841 842 843 844 845 847 848 849 850 851 853 853 854 855 856 856 857 858 859 859 860 861 861 862 863 863 864 864 865 865 865 866 866 866 866 866 866 866 865 865 865 864 864 864 863 863 862 861 861 860 860 860 860 861 862 861 861 860 861 861 861 861 861 861 860 860 860 859 859 858 858 857 857 856 856 855 854 853 852
831 833 835 837 838 839 841 842 843 845 846 847 848 849 850 852 853 854 855 855 856 857 857 858 859 859 860 861 862 862 863 863 864 864 865 865 865 866 866 866 866 866 866 866 866 865 865 865 864 864 864 863 862 862 861 860 860 860 860 861 861 861 861 860 860 861 861 861 861 861 861 860 860 860 860 859 859 858 858 857 857 856 855 854 853
830 833 835 836 838 839 841 842 843 844 846 847 848 850 850 852 853 854 855 856 857 857 858 859 859 860 860 861 862 862 863 864 864 865 865 865 866 866 866 866 867 866 866 866 866 866 866 865 865 864 864 863 863 862 861 860 860 860 860 861 861 861 861 861 861 861 861 861 862 861 861 861 861 861 860 859 859 859 858 858 857 857 856 855 854
830 832 834 836 837 839 840 842 843 844 846 847 848 849 850 852 852 853 855 856 857 858 858 859 859 860 861 861 862 863 863 864 864 865 865 865 866 866 866 866 867 866 866 866 866 866 866 866 866 865 864 864 863 862 861 860 860 860 861 861 861 861 861 861 861 862 862 862 862 862 862 862 861 861 861 860 860 859 859 859 858 858 857 856 855
830 832 834 835 836 837 839 841 842 844 845 846 847 848 849 850 851 852 854 855 856 857 858 859 860 860 861 861 862 863 863 864 864 865 865 865 866 866 866 866 866 867 867 867 867 867 867 867 866 865 865 864 863 862 861 861 860 861 861 861 861 861 861 861 862 862 863 863 862 862 862 862 862 862 861 860 860 860 859 859 859 858 857 857 856
829 832 833 834 836 837 838 840 842 843 845 846 847 848 849 850 851 852 853 854 855 857 858 859 860 860 861 861 862 863 863 864 864 865 865 865 866 866 866 866 867 867 867 867 867 867 867 867 866 866 865 864 863 862 861 861 861 861 861 861 862 861 861 860 861 862 862 862 862 862 863 862 862 862 861 861 861 860 860 859 859 858 858 857 857
828 831 832 834 835 836 838 839 841 842 844 846 846 848 849 850 851 852 853 854 855 856 857 859 860 860 861 862 862 863 863 864 864 865 865 865 866 866 866 866 867 867 867 867 867 867 867 867 866 866 865 864 863 862 862 862 861 861 861 863 863 863 863 861 860 861 861 861 862 862 862 862 862 862 861 861 861 861 860 860 859 859 858 858 857
827 830 831 833 834 836 838 839 840 842 843 845 846 847 848 850 851 852 853 854 855 856 858 859 860 860 861 861 862 862 863 864 864 865 865 865 865 866 866 866 866 867 867 867 867 867 867 867 866 866 865 865 863 862 862 861 861 861 862 864 864 866 868 864 860 860 860 860 861 861 862 862 862 862 861 861 861 861 861 860 860 859 859 858 858
827 828 830 831 833 835 837 838 840 841 843 844 846 847 848 849 850 852 853 854 855 856 857 858 859 860 860 861 861 862 863 863 864 864 865 865 865 866 866 866 866 866 866 866 867 866 867 867 867 866 866 865 864 863 862 862 862 862 862 864 866 868 869 864 861 862 860 860 861 861 862 863 862 862 862 861 861 861 861 860 860 860 859 859 858
826 828 829 831 832 834 836 838 839 841 842 843 845 846 847 848 849 850 851 852 854 855 855 856 857 859 859 860 861 862 862 863 864 864 864 864 865 865 866 866 866 866 866 866 866 866 867 867 867 867 866 866 865 864 863 862 862 862 862 862 864 865 864 862 864 865 863 861 861 862 862 863 862 862 862 862 862 861 861 861 861 860 860 859 859
825 827 830 831 832 834 835 837 838 840 841 842 844 845 846 847 848 849 850 851 852 853 854 855 856 857 858 859 860 861 862 863 863 864 864 864 865 865 865 866 866 866 866 866 866 866 867 867 867 867 866 866 865 864 864 863 863 862 862 862 861 861 861 861 863 865 866 864 862 862 863 863 862 862 861 862 862 862 862 861 861 861 860 860 859
824 827 829 831 832 834 835 837 838 839 841 842 843 844 845 846 847 848 850 851 851 852 854 855 856 857 858 858 859 860 861 862 863 864 864 864 865 865 865 865 866 866 866 866 866 866 866 866 866 866 866 866 866 865 865 865 864 863 862 861 861 861 861 861 862 863 865 867 865 863 863 862 862 862 862 862 862 862 862 862 862 861 861 860 859
823 826 828 830 832 834 836 837 838 839 840 841 842 843 844 845 846 848 849 850 851 852 854 854 856 856 857 858 859 859 860 862 863 863 864 864 864 865 865 865 866 866 866 866 866 866 866 866 866 866 866 866 866 866 866 865 865 864 862 862 862 861 861 862 863 863 863 866 867 864 863 862 862 862 862 862 862 862 862 862 862 861 861 860 860
822 825 827 829 832 833 835 836 837 838 839 841 842 843 844 845 846 847 848 850 851 852 853 854 855 856 857 857 858 859 860 861 862 863 863 864 864 865 865 865 865 865 866 866 866 866 866 866 866 866 866 866 866 866 866 866 865 864 864 863 862 862 863 863 864 864 863 864 865 864 863 863 863 863 863 862 862 862 862 862 862 861 861 860 860
821 824 826 828 831 832 834 836 837 838 838 840 841 842 843 844 845 846 847 848 850 851 852 853 854 855 856 856 857 858 859 860 861 862 863 863 864 864 864 865 865 865 865 866 866 866 866 866 866 866 866 866 866 866 866 865 865 865 864 864 864 863 864 864 864 864 863 863 864 864 864 863 864 863 863 862 862 862 862 862 861 861 861 860 860
Wind_Speed
14 14 14 13 14 15 13 13 13 16 16 15 15 15 15 14 14 15 15 14 13 13 13 13 13 13 14 14 14 14 15 16 17 18 18 18 19 19 18 18 18 18 17 17 17 18 18 18 18 18 17 17 18 18 19 19 19 19 18 18 17 17 16 16 16 16 16 16 16 15 15 14 14 14 14 13 12 12 12 12 13 13 12 12 12
17 16 15 14 15 16 14 14 15 16 16 15 16 16 15 14 15 16 15 14 13 13 14 13 13 13 13 14 13 13 14 15 16 17 17 17 18 18 17 16 17 17 16 17 18 18 18 18 18 18 18 18 18 18 18 18 17 17 17 16 16 16 16 16 15 15 15 15 15 15 15 14 14 14 13 13 12 12 12 12 12 12 12 12 12
17 17 16 15 15 16 15 16 16 16 15 15 18 17 16 15 15 15 14 14 13 13 14 14 13 13 13 13 13 13 14 15 16 16 17 17 18 18 17 16 16 17 16 16 17 18 18 17 18 17 17 17 18 17 17 16 16 16 15 16 15 15 15 15 14 13 14 14 15 15 15 14 14 14 13 12 12 11 11 11 11 11 11 11 12
17 17 17 16 15 17 16 17 16 15 15 14 17 17 16 15 14 14 14 14 13 13 14 14 14 13 13 13 13 13 13 14 15 16 16 16 18 17 16 15 15 16 16 16 16 17 17 17 17 17 17 17 17 16 16 15 15 15 15 15 15 14 14 14 13 13 13 14 15 15 15 14 13 12 12 12 11 10 10 10 10 10 11 11 11
18 18 18 17 16 17 16 16 15 15 14 13 15 15 15 15 14 14 13 13 13 13 13 14 13 13 12 12 12 13 13 14 15 16 15 15 17 17 16 15 15 16 16 16 16 16 16 17 16 16 16 16 15 15 15 14 15 15 14 14 13 12 11 11 12 12 12 12 14 14 14 14 12 11 11 10 10 10 10 10 9 9 10 10 11
20 19 19 18 16 16 15 14 14 13 13 13 13 13 13 13 13 12 13 13 13 13 13 13 13 13 12 12 12 13 13 13 15 15 14 14 16 17 15 15 15 15 16 16 15 15 16 16 15 15 15 15 14 14 15 15 15 15 14 13 11 10 10 11 12 12 10 11 13 13 13 12 12 11 10 10 9 9 10 9 9 8 9 9 10
20 19 18 17 15 14 13 13 13 12 13 13 13 12 12 12 12 12 12 13 12 12 12 12 12 12 12 12 12 13 13 14 15 15 13 12 14 16 15 14 14 14 15 15 14 15 15 15 14 14 14 14 14 14 15 15 14 14 14 14 12 10 10 11 12 10 9 10 12 12 12 11 11 10 9 9 9 9 9 9 9 7 7 9 10
19 18 17 16 14 13 12 12 13 13 13 13 13 13 12 11 11 11 12 12 12 11 11 12 12 12 12 12 13 12 13 14 15 15 13 12 12 14 14 14 14 13 13 13 14 14 14 14 14 14 14 14 13 14 15 15 15 15 15 15 13 11 10 11 11 9 8 10 11 12 12 11 10 9 8 8 9 8 8 8 7 7 7 7 9
19 17 16 16 13 12 12 13 13 13 13 12 12 12 12 10 10 10 11 12 12 11 11 12 12 12 12 12 13 13 13 14 15 15 14 13 13 13 14 13 13 12 12 13 13 14 14 13 14 14 14 13 12 13 14 15 16 16 15 14 12 10 11 11 10 8 8 9 10 11 12 11 11 9 8 7 7 7 7 7 7 7 7 6 7
19 17 16 15 14 13 13 13 13 12 11 12 12 11 11 10 10 10 11 11 12 12 11 12 12 12 12 12 13 13 13 14 14 14 14 14 14 14 13 12 12 11 12 13 13 14 13 13 14 13 13 12 12 11 14 15 16 15 14 13 11 10 11 9 8 7 7 8 9 11 10 11 11 10 9 8 7 7 7 8 8 8 8 7 7
18 18 17 15 15 14 13 13 12 12 11 12 11 12 12 11 11 10 10 10 12 12 11 12 12 12 13 13 13 13 14 14 14 14 14 14 14 13 12 11 12 12 12 13 13 13 13 13 12 12 12 12 12 11 14 15 16 15 14 12 10 11 10 8 7 6 6 7 9 10 9 10 10 9 9 8 8 7 7 8 8 8 8 7 7
18 18 17 15 15 14 13 12 12 12 11 12 12 13 12 12 12 11 11 11 12 12 12 12 12 12 13 13 13 12 13 14 14 14 14 14 14 13 12 12 13 13 13 12 12 12 12 11 11 11 12 12 12 12 14 15 15 14 13 11 9 10 10 6 5 5 5 5 7 8 8 9 9 9 8 8 7 7 7 7 7 7 7 6 6
19 18 17 15 14 12 12 12 11 11 11 11 11 12 12 12 12 11 12 12 12 12 12 12 12 13 13 14 14 13 13 13 14 15 14 14 13 12 12 13 13 12 12 11 11 11 11 10 10 11 12 12 12 12 14 15 14 13 12 11 9 10 9 4 3 4 5 5 6 7 7 8 8 8 7 7 7 7 7 7 6 6 6 5 5
20 18 16 14 12 11 11 11 10 10 10 10 10 11 11 12 11 12 12 12 13 12 12 11 12 14 14 14 13 13 13 13 15 16 15 14 13 12 12 12 12 11 11 11 10 10 10 10 10 11 12 12 12 13 14 14 13 12 11 10 8 9 8 4 3 3 5 5 5 5 6 7 7 7 6 6 6 6 6 6 6 6 5 5 4
20 18 16 14 12 10 10 9 9 9 9 9 10 10 11 11 11 12 12 12 12 13 13 12 12 14 15 14 13 12 13 14 15 16 15 13 12 12 12 11 11 11 10 10 9 9 9 10 10 11 12 12 12 13 14 13 12 11 9 9 7 8 6 3 3 4 5 4 4 4 4 5 6 6 5 4 5 5 5 4 5 5 5 5 5
18 17 15 13 12 11 10 9 9 9 9 10 10 10 11 11 12 13 13 12 13 13 13 13 13 14 15 15 14 13 13 13 14 15 14 13 13 12 12 11 12 11 10 9 9 8 8 9 9 10 11 11 12 13 13 11 10 10 9 9 7 6 6 2 2 3 5 4 3 3 3 4 5 5 4 5 5 5 5 5 5 4 4 4 4
17 16 14 13 12 12 11 10 9 10 10 10 10 10 10 11 12 13 13 13 13 13 13 13 13 14 16 15 15 15 14 14 14 15 14 14 13 13 12 12 12 11 10 9 8 8 7 8 9 9 10 10 12 12 11 10 10 10 8 8 7 5 4 3 1 3 4 4 3 2 3 3 5 5 5 5 5 5 5 5 5 4 4 3 3
17 16 14 13 13 12 12 11 10 11 11 10 10 10 10 11 11 12 13 14 14 13 13 14 14 14 16 16 15 15 15 15 16 16 15 14 14 13 12 12 11 10 9 9 8 7 7 8 9 9 9 10 12 12 11 11 10 9 8 7 7 5 4 5 1 3 4 5 3 1 2 3 4 4 3 4 4 4 4 4 3 4 4 4 4
15 14 13 12 12 13 13 12 12 12 12 12 11 10 11 11 12 13 13 14 15 15 14 14 14 15 15 16 16 15 15 16 17 16 15 15 14 13 12 12 11 10 9 8 8 7 8 9 10 10 10 11 12 12 12 10 9 9 8 7 7 4 4 6 2 3 5 5 3 2 1 2 3 3 2 3 3 3 2 2 2 3 3 3 4
15 14 12 12 13 13 13 12 12 13 13 14 13 11 11 11 13 14 14 14 15 15 15 15 15 16 16 17 16 16 16 16 17 16 16 15 14 12 12 11 10 10 9 9 8 9 10 10 11 11 11 13 13 12 11 10 9 9 8 7 5 3 3 6 3 3 6 5 3 2 1 0 1 2 2 2 2 3 1 2 2 3 3 3 3
16 14 12 13 13 13 14 14 14 14 14 14 13 12 12 13 14 14 14 15 15 15 16 16 16 17 17 17 18 18 18 18 18 16 16 15 13 12 11 10 10 10 10 10 10 10 11 11 12 12 12 12 12 11 10 10 9 9 7 5 3 2 2 5 4 3 7 5 4 3 2 1 1 2 2 2 2 3 2 1 2 2 3 3 4
17 15 13 14 14 15 15 16 16 15 14 14 13 13 13 14 15 15 16 16 16 16 17 18 18 18 18 18 19 19 19 19 18 17 16 14 12 11 10 10 10 11 11 11 11 11 12 12 12 11 11 11 11 10 9 8 7 6 4 2 3 4 3 4 3 5 7 5 5 4 3 3 3 2 2 2 1 2 3 2 2 2 2 3 4
18 16 15 14 15 17 16 17 16 15 15 14 15 14 14 15 16 16 17 17 17 17 19 20 19 18 19 20 20 20 19 19 18 17 16 14 11 10 10 10 11 11 12 11 11 12 12 12 11 10 9 9 9 8 7 5 4 3 2 2 2 4 5 3 1 6 7 6 6 5 5 5 4 4 3 3 2 2 3 3 3 2 3 3 4
18 17 16 15 16 18 17 16 15 15 16 15 16 16 16 16 17 17 18 18 18 19 20 20 20 19 20 21 21 20 19 18 18 18 16 14 11 10 10 11 12 11 11 11 11 11 10 9 8 7 7 7 6 5 4 3 2 1 2 2 1 2 5 3 3 8 8 7 7 6 7 7 7 7 6 5 5 4 3 4 4 3 4 4 5
18 18 17 16 17 18 17 15 14 16 17 17 17 17 16 16 17 17 17 18 19 20 20 19 19 19 19 20 21 20 19 19 18 18 16 14 12 11 11 12 12 11 11 10 10 9 7 5 4 4 3 3 4 2 2 2 2 1 1 2 0 3 5 2 5 9 8 8 8 8 8 9 9 8 8 7 6 5 4 4 4 3 4 5 5
18 18 17 17 17 18 17 15 15 17 17 17 17 17 17 17 17 17 17 17 18 18 18 19 19 19 19 20 20 20 19 19 18 17 16 14 13 12 12 12 11 11 10 9 8 6 4 2 1 0 1 2 3 4 4 4 2 2 1 2 4 5 5 2 6 9 9 10 10 10 11 10 10 9 8 8 7 6 6 5 5 5 5 5 6
18 19 18 17 18 17 16 17 17 18 17 17 18 18 17 17 17 16 17 18 17 17 18 18 18 18 19 20 20 20 19 19 18 16 14 13 13 13 12 12 11 10 9 8 5 3 1 1 2 3 5 5 6 5 5 5 3 1 1 4 5 5 4 1 5 10 11 12 12 12 12 12 11 10 9 8 8 8 7 7 7 7 7 7 8
19 20 19 18 18 17 17 18 18 17 16 17 18 18 16 16 16 16 16 17 17 17 18 18 18 18 19 19 19 18 17 17 16 15 13 13 13 13 12 12 11 9 6 4 2 0 2 4 6 7 8 7 6 4 4 3 5 3 3 5 4 3 2 1 4 10 13 14 14 13 12 12 11 10 10 9 9 9 9 9 10 10 9 8 8
20 20 20 19 18 17 17 18 17 17 17 17 18 17 16 15 15 16 16 16 16 17 18 18 18 18 18 18 17 16 15 15 15 14 13 13 12 12 11 11 9 6 3 1 2 3 5 7 7 8 7 7 6 4 3 3 4 4 5 5 3 2 2 2 5 9 12 12 13 13 12 12 12 11 11 10 10 10 10 10 10 10 9 8 8
21 19 20 19 18 18 17 17 16 17 17 17 17 18 16 15 16 16 16 16 16 18 19 19 18 18 18 16 14 15 14 15 15 14 14 13 12 11 10 9 6 3 1 2 3 5 6 6 7 6 6 7 7 5 4 4 3 4 6 6 5 3 2 2 4 6 7 8 9 11 11 12 12 12 12 11 11 11 11 12 12 12 10 9 9
21 19 20 19 19 18 17 17 17 17 17 17 18 18 17 16 17 17 16 16 17 19 19 18 18 18 16 13 13 13 13 14 14 13 13 12 11 10 8 6 4 2 1 2 4 5 6 5 6 6 6 6 6 5 5 6 7 9 8 7 8 4 2 2 2 3 5 7 7 8 9 10 11 12 12 12 12 12 13 13 14 15 14 13 11
21 21 20 19 19 19 17 17 18 17 17 17 18 18 19 19 19 18 16 17 18 19 19 18 19 17 13 12 12 12 13 14 13 12 12 12 11 9 7 4 2 1 1 2 2 4 4 5 5 5 5 6 5 4 4 6 8 12 11 9 10 7 2 1 1 2 4 6 6 6 7 7 9 11 12 13 13 14 15 16 17 17 17 17 15
21 22 21 20 20 19 18 18 19 19 18 17 17 18 20 21 19 17 16 17 18 18 18 18 17 15 12 12 12 11 11 12 11 10 11 11 10 8 6 4 3 2 1 1 2 2 3 4 4 4 4 5 4 3 4 5 5 11 11 9 11 10 5 3 3 3 2 6 6 5 5 5 7 8 10 12 13 14 15 16 18 19 19 20 19
22 23 23 21 20 18 18 19 20 20 19 18 18 20 22 21 18 17 17 17 17 16 16 16 16 14 13 13 12 10 9 9 9 9 9 8 7 6 5 4 4 3 1 1 1 2 3 4 4 4 3 4 4 5 7 6 4 11 11 10 11 11 7 6 5 4 1 4 5 4 4 4 5 6 7 9 11 12 14 15 17 18 19 20 20
24 25 24 22 19 18 19 21 21 20 19 20 20 22 21 20 19 18 17 16 15 14 14 15 15 14 14 14 13 10 9 8 8 8 7 6 6 5 5 5 5 3 2 1 1 1 1 3 4 3 3 5 6 7 8 7 2 9 11 9 9 9 7 8 7 5 2 2 3 4 4 3 4 4 5 7 8 9 11 13 15 16 18 19 20
26 26 26 24 20 18 19 21 21 20 19 20 21 21 21 20 20 19 18 15 13 13 13 13 14 14 14 14 12 10 10 8 7 8 7 6 5 5 5 5 4 3 3 3 2 2 1 2 2 3 4 6 7 7 6 7 3 8 12 7 5 5 5 8 9 6 2 2 1 2 3 3 4 4 5 5 6 7 8 10 12 14 16 17 19
26 27 26 24 22 21 20 20 20 20 20 21 21 21 21 20 20 20 18 15 14 13 12 13 14 14 13 13 12 11 10 8 7 7 6 6 6 6 5 4 3 3 4 3 2 1 2 2 1 3 6 8 8 8 7 7 4 7 11 7 4 3 5 8 10 7 3 3 2 1 1 3 4 4 5 5 5 6 7 8 9 11 13 15 17
25 26 25 24 24 23 21 21 20 20 21 21 22 21 20 19 19 19 18 17 17 15 14 14 14 14 14 14 13 13 12 9 8 7 7 7 7 7 6 4 3 3 3 2 1 2 2 2 3 4 6 8 7 8 9 9 5 7 10 8 5 4 6 8 9 7 4 5 4 2 1 2 3 4 4 4 4 5 6 7 8 9 11 13 15
25 25 24 24 25 24 22 22 21 20 21 22 22 21 19 18 17 17 18 19 19 18 16 16 16 15 15 15 14 13 12 10 9 9 9 8 8 7 6 5 3 2 2 2 2 3 2 2 4 5 5 5 7 9 10 9 3 10 9 7 5 4 7 7 9 9 6 6 6 4 2 1 2 3 4 4 4 4 5 6 6 7 9 11 13
26 26 25 24 24 24 23 23 22 20 20 22 22 21 19 17 16 18 20 20 19 19 18 17 16 16 16 15 14 13 12 10 10 10 10 9 7 5 5 5 3 1 1 1 2 3 3 4 6 6 5 5 6 7 7 5 4 12 9 7 5 4 6 6 8 9 6 6 8 7 4 0 2 2 3 4 4 4 5 6 6 6 7 9 10
27 27 25 24 25 25 26 26 24 21 21 23 23 22 19 17 17 20 22 21 20 20 19 17 15 14 15 15 14 13 11 11 11 11 11 10 8 5 5 6 4 2 2 1 1 2 4 5 6 6 7 9 8 5 5 4 5 8 6 6 5 4 5 5 6 7 5 5 8 10 7 2 2 2 1 2 3 3 4 5 5 5 6 7 8
28 28 27 26 26 26 26 26 25 24 24 25 24 22 19 19 20 22 22 21 21 21 20 18 14 13 15 15 14 13 12 12 12 12 12 10 8 6 5 4 4 3 3 2 1 2 3 5 6 6 7 10 10 6 4 3 3 4 3 3 2 4 5 5 5 5 5 6 8 11 9 4 3 3 1 0 1 2 3 4 4 4 4 5 7
29 29 29 28 28 27 26 25 25 25 26 25 24 21 19 20 20 21 21 20 20 19 18 16 13 12 15 15 14 15 14 13 12 12 12 10 9 7 5 4 5 4 3 2 0 1 3 4 5 7 8 10 10 5 4 5 1 3 3 1 1 1 3 5 5 5 6 6 10 12 10 5 4 4 3 2 1 1 1 2 2 3 4 5 5
28 28 30 29 28 28 26 25 25 25 25 25 23 20 19 19 18 18 19 19 18 18 16 14 12 12 14 13 13 14 14 13 12 11 10 9 8 7 6 6 5 4 3 2 1 1 3 4 5 7 8 10 12 8 5 7 4 1 1 0 1 2 1 4 3 4 4 5 11 14 12 7 5 5 5 4 3 1 0 0 1 2 3 4 5
27 28 30 29 28 29 27 26 26 24 24 23 21 19 19 20 18 17 18 17 16 17 16 15 14 14 13 13 12 13 13 12 12 10 8 7 8 7 7 6 5 4 3 2 1 1 2 3 4 6 7 9 12 11 8 8 9 6 2 1 1 1 1 2 2 5 5 4 12 16 12 8 7 7 6 6 5 3 1 1 1 1 2 3 4
27 28 30 28 29 29 27 27 27 25 24 23 20 20 20 20 20 19 19 18 17 19 18 17 18 16 14 13 11 12 12 11 11 9 7 7 8 8 7 6 5 4 3 1 1 0 1 2 4 5 6 6 9 12 11 9 10 10 7 4 2 1 2 0 1 2 5 6 10 13 10 8 7 8 8 8 7 4 2 1 2 0 2 2 4
27 29 28 27 29 29 27 27 28 27 25 22 21 21 21 21 21 20 21 20 20 21 19 18 17 16 14 13 11 12 11 10 10 9 7 8 9 9 8 7 6 4 2 1 0 0 1 1 3 5 5 6 7 10 12 11 10 10 10 9 8 4 3 3 3 2 3 4 7 10 8 4 4 6 9 11 9 6 4 2 2 0 2 3 4
28 28 26 26 30 29 27 27 28 28 24 23 24 23 22 22 22 21 21 21 21 22 21 19 16 15 14 12 12 14 12 10 10 9 8 8 10 10 9 8 6 4 3 2 0 1 1 0 2 4 3 4 6 7 9 12 13 13 11 11 11 9 6 6 6 4 3 2 1 4 4 1 3 3 3 9 11 9 6 4 2 2 3 3 3
29 28 26 27 30 29 28 28 28 27 24 24 25 24 22 23 23 22 22 22 20 21 21 19 18 16 15 13 13 15 13 11 12 11 9 9 9 10 10 9 7 5 4 2 1 2 2 1 1 3 3 2 3 5 7 10 12 14 14 13 12 11 8 7 6 4 4 3 1 3 3 1 3 2 1 4 10 10 9 7 5 5 5 5 3
29 28 27 27 30 30 29 28 28 27 26 25 25 24 23 24 24 24 23 22 20 20 20 20 19 18 16 15 15 15 14 13 13 12 10 9 9 10 10 9 8 6 5 3 2 3 4 3 1 1 3 3 2 3 6 8 9 12 14 14 13 12 9 6 5 5 3 2 1 3 4 2 1 1 1 1 5 8 7 6 7 7 6 6 5
29 28 27 28 30 30 30 29 28 28 27 25 24 24 24 25 26 25 25 24 22 21 21 21 20 19 18 18 16 15 15 14 13 13 11 10 9 9 10 9 8 7 5 4 3 5 5 3 2 0 2 4 3 3 4 6 7 9 12 13 12 11 10 8 8 6 3 2 0 1 2 3 3 4 3 2 2 6 6 6 7 8 7 7 6
Wind_Direction
167 159 150 149 144 142 144 147 141 136 133 129 126 122 122 120 120 121 121 118 116 115 117 118 118 114 109 112 115 117 119 118 117 117 115 112 109 107 107 108 108 106 108 109 108 106 103 101 100 100 100 100 101 101 101 102 102 101 99 97 95 93 92 90 89 89 88 87 86 86 86 87 88 89 89 89 89 89 91 93 96 95 93 94 93
165 159 151 151 148 146 149 146 137 133 130 129 125 122 121 121 123 123 121 118 115 115 117 118 118 114 111 113 116 120 124 124 122 120 115 111 109 107 108 108 108 106 106 108 108 106 104 102 102 102 103 103 103 103 103 103 103 101 101 99 97 95 92 90 89 89 89 89 88 87 86 86 87 88 89 89 89 88 87 89 92 95 95 97 96
157 158 149 148 147 145 147 143 139 135 133 132 128 125 123 123 125 124 122 117 116 117 118 118 118 116 113 115 117 121 125 127 126 122 117 114 113 112 112 110 109 106 104 105 106 106 104 103 103 103 105 106 105 104 103 103 103 103 102 102 100 97 95 91 87 89 92 93 92 90 87 85 85 87 88 88 89 88 87 89 90 92 93 95 96
156 156 150 150 149 145 144 142 140 136 134 133 129 127 125 126 126 125 125 121 119 121 120 119 119 118 118 120 120 119 120 126 129 126 121 119 118 115 114 113 111 107 104 105 105 106 105 105 104 105 106 107 107 104 104 104 105 105 105 104 101 94 93 93 89 89 91 94 94 92 88 85 84 86 88 88 89 88 88 89 90 92 94 95 96
158 155 153 153 152 149 144 141 136 132 132 129 126 125 125 125 126 125 124 123 121 122 122 120 122 122 122 123 121 118 117 123 131 131 125 122 121 118 115 114 112 109 107 106 106 106 106 106 106 107 108 108 107 105 106 107 107 109 107 105 103 97 94 95 94 88 86 90 92 92 92 90 88 87 88 88 86 86 87 91 93 93 94 95 96
160 156 155 152 151 149 143 140 133 131 129 126 125 124 124 124 127 127 123 122 122 124 123 122 124 124 124 124 121 119 117 123 130 133 128 124 123 119 116 115 114 111 109 108 107 108 108 108 108 109 110 111 109 107 108 109 110 110 107 103 101 99 102 104 97 90 85 88 92 94 95 95 94 91 87 86 84 81 77 82 92 94 98 98 95
160 156 155 150 148 146 142 140 137 136 131 128 128 127 127 129 134 133 130 128 128 128 126 127 126 126 128 126 121 119 118 124 131 133 129 124 120 117 116 116 115 112 111 110 110 111 111 111 111 111 113 114 113 110 107 109 110 108 106 101 92 89 101 106 99 92 88 90 94 97 96 96 96 94 91 88 85 81 73 74 81 81 90 96 97
160 158 156 149 144 143 143 142 142 141 136 134 132 132 133 137 138 135 137 136 136 135 134 134 130 128 128 125 121 119 120 127 133 133 127 120 116 115 116 117 115 114 113 113 114 114 114 114 114 114 116 116 114 111 108 110 111 109 105 99 93 91 99 105 105 101 96 95 96 97 95 92 91 91 93 93 89 87 86 85 86 80 79 87 98
161 160 154 148 144 147 149 148 147 145 140 137 136 136 137 138 137 134 138 140 140 140 141 140 135 132 130 128 125 121 122 130 135 133 126 118 117 117 117 117 115 114 114 115 116 115 115 115 115 116 118 118 117 114 110 110 113 112 105 100 99 98 104 110 112 107 98 96 95 95 95 92 89 87 88 93 95 95 95 90 85 84 84 81 93
162 160 155 149 148 152 151 151 149 146 142 140 141 141 142 142 142 139 139 144 143 142 143 140 138 137 134 131 127 124 125 131 135 132 124 118 118 118 118 117 116 115 115 117 117 116 115 114 116 119 122 122 122 116 110 111 115 115 109 106 105 102 110 113 111 106 100 100 99 97 94 92 88 84 82 85 92 97 95 90 82 76 81 79 78
164 161 157 152 150 152 150 150 148 148 147 146 148 147 149 149 151 148 145 147 143 143 143 142 144 141 136 132 128 128 130 134 135 131 123 119 118 119 121 121 118 115 114 118 119 119 117 116 119 122 126 128 127 119 113 116 118 118 115 111 104 103 114 116 109 109 103 107 107 103 100 94 87 82 80 78 82 87 86 88 87 78 74 74 69
166 162 156 152 152 153 151 151 150 151 152 152 154 152 153 153 155 155 154 151 144 144 143 147 151 142 136 132 129 131 136 136 134 131 125 122 122 123 123 121 119 114 113 118 120 119 118 119 122 125 130 131 130 125 120 123 122 119 114 108 101 107 122 123 108 104 90 101 108 106 105 99 92 86 81 75 74 78 81 83 87 85 81 76 72
163 160 153 152 153 153 152 153 154 154 155 156 158 157 157 157 157 158 157 152 148 148 146 152 153 143 139 134 135 140 139 136 135 133 129 127 127 126 122 120 118 114 116 118 118 118 120 123 126 128 131 133 133 130 128 128 122 115 107 104 103 111 128 121 84 82 75 94 107 107 105 100 100 95 88 81 72 68 70 76 81 83 87 84 80
158 156 151 151 149 152 154 153 154 152 155 154 154 155 155 158 158 158 157 153 151 151 151 154 150 144 141 139 143 143 138 139 141 138 135 133 132 128 122 120 119 119 121 120 121 122 127 129 128 127 130 135 136 135 135 131 120 113 107 108 108 110 128 115 75 69 68 93 109 110 106 100 101 95 93 91 87 78 66 66 70 73 77 80 79
156 155 152 151 148 153 154 152 152 150 151 150 150 152 153 157 158 156 154 150 148 150 152 155 152 146 141 140 142 140 138 140 142 143 141 137 137 132 124 124 123 123 124 122 127 130 134 132 127 128 132 137 138 139 138 132 122 117 114 119 116 116 140 129 84 70 62 83 103 109 104 100 99 95 94 87 86 86 81 67 60 62 66 69 67
156 153 152 153 153 154 150 150 152 150 152 151 153 154 155 157 158 156 152 149 148 151 152 153 154 149 143 141 142 141 141 139 140 144 141 139 142 137 129 129 126 124 124 128 133 133 134 132 133 135 136 138 140 143 139 134 126 122 119 123 117 116 152 155 71 56 45 54 72 86 89 92 95 89 84 73 67 67 74 66 58 59 57 59 52
155 153 153 154 155 154 150 149 147 147 148 148 151 151 151 151 152 149 148 153 151 151 152 152 153 151 147 143 142 143 141 140 142 142 141 144 143 134 131 130 125 126 128 132 133 131 132 136 140 140 139 141 146 148 142 136 128 124 121 125 120 115 166 203 27 34 27 29 38 61 71 77 79 73 67 64 62 58 62 59 54 56 56 54 39
155 156 156 156 157 155 152 151 150 148 144 144 147 148 147 148 147 145 150 158 153 148 151 152 153 151 148 145 143 143 140 140 142 142 143 146 139 131 133 131 128 128 130 132 132 135 139 139 138 135 137 140 148 150 142 136 131 131 131 135 130 115 174 210 252 24 16 11 14 32 50 63 76 76 56 52 59 52 49 50 42 40 43 43 33
151 154 157 161 162 158 158 159 159 154 149 147 146 151 152 149 147 146 151 155 152 149 151 151 150 148 146 144 143 141 138 138 141 141 143 143 137 135 136 133 131 131 133 137 138 140 136 131 128 129 133 137 145 146 143 141 138 139 138 140 131 111 176 206 232 11 6 2 2 347 1 63 97 119 79 51 56 47 33 27 18 28 28 28 24
145 153 161 164 161 158 161 159 157 152 146 142 143 150 150 147 145 145 147 149 149 148 147 147 146 145 145 144 143 142 139 139 138 140 143 142 139 138 137 135 134 136 139 138 134 132 126 121 122 127 132 136 144 146 146 145 142 142 142 139 129 101 199 213 225 4 1 4 9 359 358 57 129 127 101 79 47 30 17 3 359 14 15 22 14
148 157 161 158 153 151 150 145 144 143 140 138 142 146 147 146 141 139 142 145 146 144 144 145 143 143 145 146 145 144 141 140 138 140 142 142 141 138 138 139 138 140 137 131 128 127 125 123 126 130 133 137 144 147 149 148 147 150 152 151 146 145 217 224 222 357 360 15 28 20 16 356 97 90 73 79 37 4 349 335 336 357 3 10 0
150 154 155 153 148 143 139 135 136 138 137 137 140 140 141 142 138 138 141 141 144 146 146 145 143 142 146 148 148 145 141 141 139 141 141 140 141 140 142 144 143 141 136 132 132 132 130 129 131 135 138 141 146 150 152 152 157 165 167 153 148 180 224 233 222 0 5 30 35 34 36 38 76 74 31 45 27 349 355 355 358 13 7 8 355
152 149 149 151 150 143 137 134 133 135 135 135 136 135 135 136 136 140 140 140 144 149 148 146 145 145 147 149 148 144 142 143 140 140 139 137 142 144 146 147 145 142 139 138 137 136 133 129 129 132 138 145 150 151 149 145 151 157 149 106 113 199 227 210 147 8 15 40 39 43 49 51 65 59 42 42 50 33 12 15 27 20 4 7 350
155 150 149 149 152 146 136 134 134 133 133 133 133 132 134 133 134 138 139 141 144 146 146 146 146 145 146 147 146 143 143 142 139 138 136 139 145 148 150 151 149 145 144 143 140 138 135 129 122 122 128 140 151 153 152 142 139 127 116 113 63 225 208 160 40 12 26 47 48 55 57 58 62 59 58 57 59 55 35 27 25 357 343 347 332
156 152 151 151 153 146 136 137 138 134 130 131 131 132 135 134 134 136 138 142 143 145 146 147 146 146 146 145 143 142 143 142 140 140 141 147 151 151 154 152 149 147 148 144 140 140 136 129 119 122 134 152 173 196 230 279 284 295 41 128 141 212 187 134 24 19 39 53 55 60 62 64 64 64 65 63 62 56 47 36 26 354 330 324 319
156 153 153 154 155 147 138 140 141 137 132 130 129 131 135 135 135 135 138 141 143 144 146 147 146 147 146 144 144 144 144 144 145 146 147 151 151 150 152 150 149 149 146 141 139 139 133 123 95 76 278 268 269 278 281 290 284 303 349 157 177 190 181 111 26 33 52 60 62 64 65 67 67 67 64 60 56 50 43 28 18 3 342 323 321
158 154 155 157 156 151 146 144 142 141 138 133 130 131 133 133 133 136 140 142 144 145 145 148 148 148 148 147 147 147 147 148 150 148 147 148 147 147 149 148 149 147 143 141 142 144 134 5 346 327 316 307 300 297 288 273 228 191 77 160 163 174 174 132 38 52 65 67 67 70 70 69 66 62 55 49 43 37 29 18 8 360 350 334 325
157 156 159 160 158 156 152 147 144 144 141 139 135 134 134 134 133 136 141 143 146 147 146 148 149 149 149 149 148 148 149 150 149 144 142 143 143 145 148 150 151 148 147 140 131 57 346 342 340 333 329 324 312 297 283 237 189 160 139 153 155 167 173 145 64 68 73 71 69 71 72 69 63 57 48 41 36 30 24 17 11 3 356 346 336
158 157 161 163 160 156 154 151 147 143 142 144 141 138 139 139 137 138 140 144 147 147 148 149 149 150 149 148 147 147 148 148 146 141 140 141 143 146 150 157 158 152 145 90 18 0 353 351 348 341 342 342 336 309 260 181 163 157 157 174 186 180 163 111 99 85 75 67 64 66 69 67 61 55 49 44 40 37 33 28 22 17 9 358 352
157 158 162 164 163 160 158 156 149 142 143 148 145 142 144 145 143 141 139 144 148 147 150 152 150 150 147 147 147 148 149 149 146 142 144 145 146 149 152 158 159 154 126 13 1 350 345 350 347 342 349 347 346 325 258 210 208 191 173 187 194 173 128 113 116 102 77 59 54 56 63 65 62 58 54 51 49 46 44 41 37 33 28 16 10
156 159 163 165 166 165 162 158 154 147 145 149 148 146 147 148 145 141 138 145 150 149 150 152 151 149 144 144 148 150 152 152 150 150 152 152 152 155 155 159 160 154 42 8 0 344 329 329 331 334 342 329 341 337 269 252 255 228 200 195 192 177 129 138 149 119 82 57 47 45 54 62 62 61 58 55 53 51 48 46 42 38 37 34 32
158 161 163 165 168 167 164 160 157 153 148 148 151 151 150 148 144 142 143 146 148 146 146 149 152 152 146 145 147 152 157 159 160 161 159 156 157 159 160 171 183 169 27 354 349 344 326 323 322 319 315 304 331 353 286 283 265 228 216 212 200 196 190 177 212 168 86 58 49 44 46 55 59 60 59 58 54 52 49 46 42 38 36 38 40
161 161 161 164 167 167 166 162 160 157 152 150 151 153 151 147 144 147 152 152 150 149 151 154 158 160 155 151 150 154 162 166 167 163 159 158 162 164 166 181 186 183 197 284 302 316 303 307 308 295 290 302 338 0 329 318 261 218 216 222 209 209 226 230 224 211 103 65 57 49 47 51 58 58 56 57 54 51 49 47 44 39 35 36 39
161 162 161 163 165 166 166 163 163 160 154 152 153 153 150 147 147 153 157 156 155 156 158 160 164 166 163 159 156 160 166 168 167 161 160 165 171 172 169 166 164 165 167 218 268 260 268 285 297 293 290 317 336 338 344 350 232 209 212 224 217 211 224 232 221 213 161 73 62 51 52 53 60 58 52 54 51 48 47 46 45 41 37 35 36
162 164 163 163 165 168 166 164 165 162 156 158 158 155 152 151 152 156 158 158 160 160 162 164 166 168 166 163 164 170 171 167 168 165 162 162 166 168 156 149 157 172 194 212 210 179 254 282 298 299 285 310 325 330 352 10 270 208 201 212 212 204 222 236 222 208 191 95 72 52 57 67 69 57 46 48 47 43 42 42 42 40 38 36 35
162 163 164 165 168 171 169 166 166 164 161 162 164 161 156 155 156 157 158 160 166 162 159 162 163 166 167 167 170 174 173 169 166 163 160 158 160 163 154 152 161 181 199 197 155 114 34 312 307 313 309 318 329 336 357 12 344 201 191 197 199 203 240 235 213 197 183 159 109 44 61 85 85 63 49 49 42 36 33 34 35 35 35 36 37
163 163 165 168 170 172 170 168 167 167 165 163 164 165 162 161 159 159 160 163 168 164 160 162 160 160 162 166 169 172 174 171 163 158 159 158 159 159 156 162 165 169 183 182 155 77 24 2 328 327 335 333 333 340 348 0 350 198 187 186 192 209 226 210 194 188 181 188 212 316 43 75 82 72 65 58 37 27 25 24 25 27 30 34 37
164 165 167 169 169 170 170 169 168 165 164 161 161 164 164 164 163 164 165 166 168 164 160 160 159 158 160 164 167 170 172 171 167 167 166 160 162 168 172 178 180 178 177 163 133 64 34 2 336 330 343 338 333 336 331 339 323 211 189 181 189 196 204 199 190 196 205 207 216 230 266 35 66 74 71 60 36 27 25 23 22 23 27 32 34
167 168 167 167 167 168 170 169 168 165 164 161 160 161 164 168 172 175 175 172 172 171 166 164 164 164 168 170 171 173 174 174 171 173 173 167 167 175 180 183 180 181 178 149 109 68 49 18 349 340 347 334 327 328 321 328 272 205 195 194 200 196 208 209 200 206 216 219 224 224 238 5 66 80 71 54 40 42 38 32 28 26 27 29 29
169 169 168 169 169 170 172 171 170 169 166 165 165 166 171 175 178 182 181 175 173 174 173 173 173 175 179 178 175 176 176 175 174 173 172 167 162 160 165 170 169 167 167 126 81 36 22 14 358 353 353 335 329 333 333 345 194 194 198 202 194 184 200 199 196 204 207 222 235 231 229 125 101 108 77 56 44 51 48 43 43 39 32 27 25
169 170 171 172 169 168 170 172 173 174 171 169 169 171 175 174 168 171 174 173 173 172 173 174 177 182 185 182 176 173 170 169 171 171 169 168 162 151 151 159 154 138 129 111 40 5 5 5 0 1 355 348 352 359 10 37 163 182 193 195 186 199 216 214 211 217 227 254 246 221 212 190 136 140 90 47 33 39 47 56 62 54 40 31 26
170 173 173 171 167 165 166 168 171 174 173 171 171 173 176 173 165 164 164 164 170 174 175 175 176 180 183 181 176 171 166 163 165 169 170 171 169 159 157 164 162 155 146 138 68 6 2 7 11 15 7 2 4 4 17 33 168 164 151 169 202 240 249 254 251 255 267 269 243 213 203 195 158 157 167 13 351 11 45 66 74 63 46 35 29
171 173 173 170 167 167 166 166 168 172 173 173 174 174 174 173 168 166 166 163 165 170 172 174 176 177 178 180 179 175 169 163 164 168 170 174 177 171 172 181 180 181 186 186 163 351 354 16 27 20 13 14 17 17 9 359 302 157 113 65 323 278 294 287 278 287 281 255 233 219 213 206 175 180 194 205 267 327 54 82 77 52 39 35 33
167 170 172 170 170 171 170 169 168 169 172 175 177 176 174 176 174 171 174 173 171 171 170 173 179 176 176 182 185 181 176 171 169 167 166 177 186 180 178 184 180 182 193 200 260 340 356 19 32 24 14 16 25 34 16 4 18 106 126 40 28 72 348 295 329 355 314 240 221 215 215 215 201 205 204 204 235 284 10 139 67 31 28 30 33
165 168 171 172 173 175 176 175 171 171 173 174 178 178 176 178 177 172 173 174 173 174 173 177 181 177 178 184 185 187 185 180 175 170 168 180 190 186 184 186 175 168 181 201 252 348 5 20 32 28 22 17 22 33 33 35 49 52 63 113 35 33 264 266 21 37 55 157 201 208 213 221 225 234 225 210 227 256 277 214 162 7 0 10 20
166 169 171 173 175 176 178 177 175 174 175 176 180 182 179 178 177 172 173 175 174 178 180 180 182 182 185 186 186 189 185 180 176 174 178 185 187 186 183 184 173 159 160 183 217 317 22 51 38 25 26 25 24 33 36 43 57 54 53 57 43 201 223 319 81 45 66 122 179 194 204 218 228 242 236 221 227 240 236 199 172 86 353 343 353
168 170 171 174 176 176 179 179 177 177 180 183 185 184 182 182 182 178 179 181 180 182 184 183 185 188 189 191 192 187 176 174 180 182 192 191 183 177 175 178 171 159 157 159 195 30 140 90 32 26 33 32 29 34 32 30 39 44 47 45 44 71 103 94 136 159 65 111 159 168 176 197 206 225 233 227 230 238 232 213 198 281 354 331 323
169 170 173 176 177 177 180 179 178 182 186 187 186 185 183 181 183 183 183 185 185 184 184 187 190 190 189 192 192 186 177 180 189 193 199 195 184 176 172 175 174 172 180 167 335 296 207 197 30 41 44 34 27 27 28 28 27 27 35 37 35 50 76 95 133 150 117 113 179 172 180 204 170 180 230 224 227 240 248 251 261 300 331 328 316
172 174 176 178 179 179 182 182 183 186 187 186 186 189 189 184 182 182 182 184 185 184 186 190 191 189 190 190 185 183 183 191 196 198 202 200 192 183 176 174 173 183 190 180 297 260 226 247 37 51 35 25 21 15 19 26 28 29 32 31 31 43 58 72 98 116 113 118 274 257 261 310 144 137 12 217 224 243 251 255 271 289 304 311 314
174 176 177 178 179 180 182 186 188 186 185 187 188 190 192 190 186 182 180 181 182 183 186 189 188 189 191 187 184 185 189 197 200 200 202 202 199 193 187 180 172 179 187 193 242 217 205 228 232 45 14 348 336 358 14 21 30 35 33 30 29 35 38 34 32 35 49 77 124 246 280 332 53 306 334 219 229 247 253 251 259 274 291 303 310
173 175 177 177 178 181 184 188 190 187 186 189 189 190 192 193 190 186 182 181 182 182 184 187 187 190 191 188 189 191 195 200 201 204 205 203 203 200 194 187 177 180 186 187 203 199 201 221 229 335 353 346 342 339 0 20 31 33 32 28 21 22 26 16 5 6 357 347 71 179 327 325 305 305 320 345 278 251 254 251 257 275 284 291 303